Change the Weather History Date:

Saturday, June 15, 2013

  Actual Average Record
Temperature  
Mean Temperature 77 °F 73 °F  
Max Temperature 94 °F 90 °F 106 °F (1974)
Min Temperature 59 °F 56 °F 41 °F (1981)
Degree Days  
Heating Degree Days 0 0  
Month to date heating degree days 0 15  
Since 1 June heating degree days 0 15  
Since 1 July heating degree days 6046 5575  
Cooling Degree Days 12 8  
Month to date cooling degree days 174 96  
Year to date cooling degree days 254 160  
Since 1 June cooling degree days 174 96  
Growing Degree Days 27 (Base 50)    
Moisture  
Dew Point 23 °F    
Average Humidity 12    
Maximum Humidity 18    
Minimum Humidity 6    
Precipitation  
Precipitation T in 0.02 in 0.24 in (1973)
Month to date precipitation T 0.25  
Year to date precipitation 1.72 3.45  
Sea Level Pressure  
Sea Level Pressure 29.82 in    
Wind  
Wind Speed 9 mph (SSW)    
Max Wind Speed 38 mph    
Max Gust Speed 54 mph    
Visibility 10 miles    
Events Rain , Thunderstorm    
T = Trace of Precipitation, MM = Missing Value Source: NWS Daily Summary

Daily Weather History Graph

Daily Weather History Graph

Search for Another Location

Airport or City:

Trip Planner

Search our weather history database for the weather conditions in past years. The results will help you decide how hot, cold, wet, or windy it might be!

Date:

Astronomy

Jun. 15, 2013 Rise Set
Actual Time 5:53 AM MDT 8:45 PM MDT
Civil Twilight 5:21 AM MDT 9:17 PM MDT
Nautical Twilight 4:41 AM MDT 9:57 PM MDT
Astronomical Twilight 3:55 AM MDT 10:44 PM MDT
Moon 12:27 PM MDT (6/15) 12:26 AM MDT (6/15)
Length of Visible Light 15h 56m
Length of Day
14h 52m
Waxing Crescent, 40% of the Moon is Illuminated
Jun 15
Waxing Crescent
Jun 16
First Quarter
Jun 23
Full
Jun 29
Last Quarter
Jul 8
New

Hourly Weather History & Observations

Time (MDT) Temp. Dew Point Humidity Pressure Visibility Wind Dir Wind Speed Gust Speed Precip Events Conditions
12:53 AM 69.1 °F 12.9 °F 11% 29.75 in 10.0 mi Calm Calm - N/A   Clear
1:53 AM 68.0 °F 10.9 °F 11% 29.74 in 10.0 mi WNW 3.5 mph - N/A   Clear
2:53 AM 66.9 °F 10.9 °F 11% 29.75 in 10.0 mi SE 4.6 mph - N/A   Clear
3:53 AM 66.9 °F 12.9 °F 12% 29.74 in 10.0 mi Calm Calm - N/A   Clear
4:53 AM 64.0 °F 12.0 °F 13% 29.76 in 10.0 mi South 3.5 mph - N/A   Clear
5:53 AM 61.0 °F 12.0 °F 15% 29.79 in 10.0 mi WNW 3.5 mph - N/A   Clear
6:53 AM 66.0 °F 14.0 °F 13% 29.81 in 10.0 mi Calm Calm - N/A   Clear
7:53 AM 71.1 °F 16.0 °F 12% 29.82 in 10.0 mi West 3.5 mph - N/A   Clear
8:53 AM 75.9 °F 15.1 °F 10% 29.83 in 10.0 mi SE 5.8 mph - N/A   Clear
9:53 AM 79.0 °F 14.0 °F 9% 29.83 in 10.0 mi ESE 6.9 mph - N/A   Clear
10:53 AM 81.0 °F 14.0 °F 8% 29.83 in 10.0 mi Calm Calm - N/A   Clear
11:53 AM 86.0 °F 14.0 °F 7% 29.83 in 10.0 mi Calm Calm - N/A   Clear
12:53 PM 89.1 °F 21.0 °F 8% 29.80 in 10.0 mi SW 20.7 mph 26.5 mph N/A   Clear
1:53 PM 88.0 °F 23.0 °F 9% 29.79 in 10.0 mi Variable 6.9 mph 29.9 mph N/A   Clear
2:53 PM 93.0 °F 21.9 °F 8% 29.75 in 10.0 mi West 16.1 mph 34.5 mph N/A   Clear
3:53 PM 82.0 °F 36.0 °F 19% 29.80 in 10.0 mi WNW 33.4 mph 44.9 mph 0.00 in Rain , Thunderstorm Light Rain
4:13 PM 87.8 °F 28.4 °F 12% 29.96 in 10.0 mi NNW 10.4 mph 19.6 mph 0.00 in   Partly Cloudy
4:53 PM 88.0 °F 26.1 °F 11% 29.77 in 10.0 mi WSW 4.6 mph - 0.00 in   Clear
5:53 PM 87.1 °F 26.1 °F 11% 29.77 in 10.0 mi SSW 9.2 mph - N/A   Clear
6:15 PM 84.2 °F 26.6 °F 12% 29.93 in 10.0 mi Variable 6.9 mph 42.6 mph N/A   Squalls
6:53 PM 86.0 °F 28.9 °F 13% 29.74 in 8.0 mi South 34.5 mph 54.1 mph N/A   Scattered Clouds
7:07 PM 86.0 °F 28.4 °F 12% 29.92 in 10.0 mi South 12.7 mph 28.8 mph N/A   Partly Cloudy
7:53 PM 86.0 °F 28.0 °F 12% 29.75 in 10.0 mi SSW 5.8 mph - N/A   Clear
8:53 PM 82.9 °F 30.0 °F 15% 29.77 in 10.0 mi South 6.9 mph - N/A   Clear
9:11 PM 82.4 °F 28.4 °F 14% 29.95 in 10.0 mi SSW 11.5 mph - N/A Thunderstorm Clear
9:48 PM 80.6 °F 33.8 °F 18% 29.96 in 10.0 mi South 13.8 mph - N/A   Clear
9:53 PM 80.1 °F 33.1 °F 18% 29.77 in 10.0 mi SSE 9.2 mph - N/A   Clear
10:46 PM 78.8 °F 35.6 °F 21% 29.98 in 10.0 mi SE 17.3 mph 21.9 mph N/A Thunderstorm Clear
10:53 PM 79.0 °F 35.1 °F 20% 29.80 in 10.0 mi SSE 13.8 mph - N/A Thunderstorm Clear
11:04 PM 80.6 °F 35.6 °F 20% 29.99 in 10.0 mi SSE 18.4 mph 25.3 mph N/A   Partly Cloudy
11:53 PM 79.0 °F 35.1 °F 20% 29.80 in 10.0 mi SSE 16.1 mph - N/A   Partly Cloudy